Regional Weather Roundup
Issued by NWS

Home | Current Version | Previous Version | Text Only | Print | Product List | Glossary On
Versions: 1 2 3 4 5 6 7 8 9 10 11 12 13 14 15 16 17 18 19 20 21 22 23 24 25 26 27 28 29 30 31 32 33 34 35 36 37 38 39 40 41 42 43 44 45 46 47 48 49 50
851
ASUS44 KLIX 191410
RWRLA
LOUISIANA WEATHER ROUNDUP
NATIONAL WEATHER SERVICE NEW ORLEANS LA
900 AM CDT SAT APR 19 2014

NOTE: "FAIR" INDICATES FEW OR NO CLOUDS BELOW 12,000 FEET WITH NO
      SIGNIFICANT WEATHER AND/OR OBSTRUCTIONS TO VISIBILITY.
      SKY/WX - SKY CONDITION AND SIGNIFICANT WEATHER.
      TMP - AIR TEMPERATURE.    DP   - DEWPOINT TEMPERATURE.
      RH  - RELATIVE HUMIDITY.  PRES - PRESSURE.
      HX  - HEAT INDEX.         WCI  - WIND CHILL INDEX.

*  THESE STATIONS ARE NOT NWS OR FAA STATIONS AND ARE NOT UNDER
   NWS QUALITY CONTROL.

LAZ040-048-061>063-065-066-069-191500-
SOUTHEAST LOUISIANA

CITY           SKY/WX    TMP DP  RH WIND       PRES   REMARKS
N.O. AUDUBON     N/A     67  56  66 MISG        N/A
N.O. INTL ARPT MOSUNNY   64  55  72 N8        30.16R
N.O. LAKEFRONT SUNNY     62  54  74 NE9       30.16S
N.O. DOWNTOWN* FAIR      63  50  63 N7        30.16R
SLIDELL        SUNNY     63  53  70 NE9       30.14F
BATON ROUGE    SUNNY     64  53  67 CALM      30.18R
BOOTHVILLE     MOSUNNY   61  55  81 N9        30.15R
BELLE CHASSE   MOSUNNY   64  52  64 N6        30.15R
BOGALUSA*        N/A     62  53  72 NE6       30.18S
GALLIANO*      SUNNY     64  55  72 N9        30.16S
NEW ROADS*     FAIR      60  53  75 NW3       30.20R
GONZALES*      FAIR      62  54  76 CALM      30.17S
HAMMOND*       SUNNY     64  52  63 N6        30.18R
HOUMA*         SUNNY     63  54  72 N5        30.17R
PORT FOURCHON* SUNNY     63  55  77 N9        30.17S

$$

LAZ041-044-053-054-191500-
SOUTHWEST LOUISIANA

CITY           SKY/WX    TMP DP  RH WIND       PRES   REMARKS
LAKE CHARLES   MOSUNNY   64  58  80 E9        30.18S
LAFAYETTE      SUNNY     63  56  78 CALM      30.19R
PATTERSON      SUNNY     64  55  72 NE6       30.21R
SALT POINT       N/A     65  55  70 VRB3      30.17R
NEW IBERIA     SUNNY     64  54  69 NE5       30.20R
CHENAULT AIRPK SUNNY     63  55  77 E8        30.19S

$$

LAZ027-028-191500-
CENTRAL LOUISIANA

CITY           SKY/WX    TMP DP  RH WIND       PRES   REMARKS
FORT POLK      SUNNY     62  55  77 SE7       30.20R
ALEXANDRIA INT SUNNY     62  56  80 SE5       30.19R
ALEXANDRIA     SUNNY     63  55  75 CALM      30.20S

$$

LAZ001-002-191500-
NORTHWEST LOUISIANA

CITY           SKY/WX    TMP DP  RH WIND       PRES   REMARKS
SHREVEPORT     PTSUNNY   63  56  78 SE3       30.21R
BARKSDALE AFB  SUNNY     62  56  80 S6        30.21R
DTN SHREVEPORT SUNNY     62  55  77 SE3       30.22R

$$

LAZ014-016-191500-
NORTHEAST LOUISIANA

CITY           SKY/WX    TMP DP  RH WIND       PRES   REMARKS
MONROE         SUNNY     62  55  77 SW3       30.22R
TALLULAH       SUNNY     63  55  75 CALM      30.21R

$$




USA.gov is the U.S. government's official web portal to all federal, state and local government web resources and services.